Location: Unspecified
(41.5516°N, 88.1098°W)
Time: 07:04:45
(UTC-05:00)

Okean 3 - Visible Passes

Search period start: 21 August 2014 00:00
Search period end: 31 August 2014 00:00
Orbit: 583 x 611 km, 82.5° (Epoch: 20 August)

Date Brightness Start Highest point End Pass type
(mag) Time Alt. Az. Time Alt. Az. Time Alt. Az.
21 Aug 6.3 04:42:38 10° SE 04:45:32 18° E 04:48:26 10° NE visible
22 Aug 5.5 04:52:09 10° SSE 04:55:46 28° E 04:59:23 10° NNE visible
23 Aug 4.6 05:02:01 10° SSE 05:06:03 46° E 05:10:04 10° NNE visible
24 Aug 3.6 05:12:10 10° S 05:16:22 76° E 05:20:34 10° N visible
25 Aug 3.4 05:22:34 10° SSW 05:26:44 66° W 05:30:56 10° N visible
26 Aug 6.3 03:57:40 10° ESE 04:00:08 15° E 04:02:36 10° NE visible
26 Aug 3.9 05:33:11 10° SSW 05:37:09 40° WNW 05:41:08 10° N visible
27 Aug 5.6 04:06:58 10° SE 04:10:20 24° E 04:13:43 10° NE visible
28 Aug 4.8 04:16:54 11° SSE 04:20:35 38° E 04:24:29 10° NNE visible
29 Aug 3.8 04:27:57 19° S 04:30:53 62° E 04:35:02 10° NNE visible
30 Aug 3.3 04:38:55 26° SSW 04:41:13 80° W 04:45:26 10° N visible
